EW9518 Weather Reports


time (UTC)temp
C
wind
direction
speed
KPH
gust
KPH
rain 1hr
cm
rain 24hr
cm
rain mn
cm
humidity
%
barometer
mb
20200531073536 19 146 0.0 0.0 0.00 0.00 0.00 67 1015.6
20200531073112 19 146 0.0 0.0 0.00 0.00 0.00 67 1015.6
20200531072538 19 146 0.0 0.0 0.00 0.00 0.00 67 1015.6
20200531072036 19 149 0.0 0.0 0.00 0.00 0.00 66 1015.5
20200531071557 19 149 0.0 0.0 0.00 0.00 0.00 66 1015.5
20200531071034 19 149 0.0 0.0 0.00 0.00 0.00 66 1015.5
20200531070606 19 150 0.0 0.0 0.00 0.00 0.00 66 1015.5
20200531070124 20 150 0.0 0.0 0.00 0.00 0.00 65 1015.5
20200531065537 20 150 0.0 0.0 0.00 0.00 0.00 65 1015.6
20200531065031 20 157 0.0 0.0 0.00 0.00 0.00 65 1015.6
20200531063529 20 150 0.0 0.0 0.00 0.00 0.00 64 1015.6
20200531063055 20 156 0.0 0.0 0.00 0.00 0.00 64 1015.7
20200531062530 20 156 0.0 0.0 0.00 0.00 0.00 63 1015.7
20200531062026 20 157 0.0 0.0 0.00 0.00 0.00 63 1015.7
20200531061533 20 158 0.0 0.0 0.00 0.00 0.00 63 1015.6
20200531061025 20 174 0.0 0.0 0.00 0.00 0.00 63 1015.6
20200531060525 20 157 0.0 0.0 0.00 0.00 0.00 63 1015.5
20200531060110 20 150 0.0 0.0 0.00 0.00 0.00 62 1015.6
20200531055530 21 152 0.0 0.0 0.00 0.00 0.00 62 1015.6
20200531055032 21 156 0.0 1.6 0.00 0.00 0.00 61 1015.5
20200531054526 21 128 0.0 1.6 0.00 0.00 0.00 61 1015.6
20200531053522 21 119 0.0 0.0 0.00 0.00 0.00 60 1015.6
20200531053041 21 150 0.0 1.6 0.00 0.00 0.00 60 1015.5
20200531052519 21 148 0.0 1.6 0.00 0.00 0.00 60 1015.5
20200531052036 21 156 0.0 3.2 0.00 0.00 0.00 59 1015.6
20200531051520 21 133 0.0 3.2 0.00 0.00 0.00 58 1015.5
20200531051017 22 173 0.0 3.2 0.00 0.00 0.00 58 1015.6
20200531050516 22 127 0.0 3.2 0.00 0.00 0.00 58 1015.6
20200531050022 22 128 0.0 3.2 0.00 0.00 0.00 57 1015.5
20200531045525 22 138 0.0 3.2 0.00 0.00 0.00 57 1015.5
20200531045016 22 131 0.0 0.0 0.00 0.00 0.00 57 1015.5
20200531044525 22 130 0.0 0.0 0.00 0.00 0.00 56 1015.5
20200531043517 22 128 0.0 4.8 0.00 0.00 0.00 55 1015.5
20200531043107 22 129 0.0 4.8 0.00 0.00 0.00 55 1015.3
20200531042518 22 142 0.0 1.6 0.00 0.00 0.00 54 1015.4
20200531042017 22 150 0.0 3.2 0.00 0.00 0.00 54 1015.4
20200531041551 23 143 0.0 3.2 0.00 0.00 0.00 53 1015.4
20200531041023 23 136 0.0 1.6 0.00 0.00 0.00 52 1015.4
20200531040518 23 114 0.0 0.0 0.00 0.00 0.00 52 1015.3
20200531040018 23 139 0.0 0.0 0.00 0.00 0.00 51 1015.3
20200531035523 23 129 0.0 4.8 0.00 0.00 0.00 51 1015.2
20200531035016 23 116 0.0 4.8 0.00 0.00 0.00 50 1015.2
20200531034519 23 111 0.0 1.6 0.00 0.00 0.00 50 1015.2
20200531033526 23 126 0.0 1.6 0.00 0.00 0.00 50 1015.2
20200531033052 23 119 0.0 9.7 0.00 0.00 0.00 50 1015.1
20200531032019 24 96 0.0 3.2 0.00 0.00 0.00 49 1015.0
20200531031524 24 108 0.0 11.3 0.00 0.00 0.00 49 1015.0
20200531031020 24 130 0.0 6.4 0.00 0.00 0.00 49 1014.9
20200531030519 24 107 0.0 6.4 0.00 0.00 0.00 49 1014.7
20200531030045 25 90 0.0 14.5 0.00 0.00 0.00 49 1014.7
20200531025519 25 101 0.0 16.1 0.00 0.00 0.00 49 1014.6
20200531025019 25 117 0.0 17.7 0.00 0.00 0.00 48 1014.6
20200531024535 25 96 3.2 17.7 0.00 0.00 0.00 49 1014.5
20200531023518 25 144 0.0 16.1 0.00 0.00 0.00 50 1014.4
20200531023030 25 123 0.0 16.1 0.00 0.00 0.00 49 1014.3
20200531022518 25 95 0.0 12.9 0.00 0.00 0.00 49 1014.3
20200531022018 25 103 0.0 12.9 0.00 0.00 0.00 48 1014.3
20200531021525 26 110 0.0 3.2 0.00 0.00 0.00 48 1014.2
20200531021017 26 112 0.0 11.3 0.00 0.00 0.00 47 1014.2
20200531020517 26 80 0.0 11.3 0.00 0.00 0.00 46 1014.2
20200531020020 26 95 0.0 9.7 0.00 0.00 0.00 46 1014.1
20200531015518 26 127 0.0 9.7 0.00 0.00 0.00 45 1014.2
20200531015017 26 93 0.0 16.1 0.00 0.00 0.00 44 1014.1
20200531014518 26 103 3.2 24.1 0.00 0.00 0.00 44 1014.1
20200531013534 26 130 0.0 22.5 0.00 0.00 0.00 43 1014.1
20200531013032 26 88 8.0 29.0 0.00 0.00 0.00 43 1014.0
20200531012520 27 125 4.8 29.0 0.00 0.00 0.00 43 1014.0
20200531012032 27 114 9.7 27.4 0.00 0.00 0.00 43 1014.0
20200531011517 27 78 8.0 24.1 0.00 0.00 0.00 43 1014.0
20200531011013 27 88 8.0 25.7 0.00 0.00 0.00 43 1013.9
20200531010532 27 111 3.2 25.7 0.00 0.00 0.00 44 1013.7
20200531010015 27 96 8.0 25.7 0.00 0.00 0.00 44 1013.7
20200531005515 27 85 3.2 24.1 0.00 0.00 0.00 44 1013.6
20200531005020 28 68 9.7 24.1 0.00 0.00 0.00 44 1013.5
20200531004531 28 84 4.8 24.1 0.00 0.00 0.00 44 1013.6
20200531003513 28 96 1.6 22.5 0.00 0.00 0.00 43 1013.4
20200531003014 28 140 0.0 20.9 0.00 0.00 0.00 42 1013.4
20200531002516 28 101 0.0 24.1 0.00 0.00 0.00 42 1013.3
20200531002013 28 128 1.6 29.0 0.00 0.00 0.00 41 1013.3
20200531001535 28 105 4.8 29.0 0.00 0.00 0.00 41 1013.2
20200531001018 28 101 1.6 22.5 0.00 0.00 0.00 41 1013.2
20200531000512 28 54 3.2 22.5 0.00 0.00 0.00 41 1013.3
20200531000047 28 129 3.2 22.5 0.00 0.00 0.00 41 1013.2
20200530235513 28 119 1.6 20.9 0.00 0.00 0.00 41 1013.2
20200530235012 29 102 1.6 24.1 0.00 0.00 0.00 41 1013.2
20200530234530 29 94 8.0 29.0 0.00 0.00 0.00 40 1013.2
20200530233514 29 115 1.6 25.7 0.00 0.00 0.00 40 1013.2
20200530233021 29 111 1.6 24.1 0.00 0.00 0.00 39 1013.2
20200530232514 28 134 3.2 25.7 0.00 0.00 0.00 40 1013.3
20200530232012 28 89 3.2 29.0 0.00 0.00 0.00 39 1013.4
20200530231512 28 77 12.9 29.0 0.00 0.00 0.00 39 1013.5
20200530231016 28 123 1.6 24.1 0.00 0.00 0.00 40 1013.4
20200530230512 28 105 6.4 24.1 0.00 0.00 0.00 40 1013.6
20200530230011 28 128 6.4 24.1 0.00 0.00 0.00 40 1013.6
20200530225511 28 123 3.2 22.5 0.00 0.00 0.00 40 1013.5
20200530225017 28 122 0.0 9.7 0.00 0.00 0.00 41 1013.7
20200530224510 28 79 0.0 8.0 0.00 0.00 0.00 41 1013.7
20200530223508 29 54 0.0 16.1 0.00 0.00 0.00 41 1013.8
20200530223126 29 79 0.0 17.7 0.00 0.00 0.00 41 1013.9
20200530222507 29 66 1.6 17.7 0.00 0.00 0.00 40 1014.0
20200530222007 29 97 4.8 19.3 0.00 0.00 0.00 39 1014.0
20200530221516 30 73 3.2 24.1 0.00 0.00 0.00 39 1014.1
20200530221005 30 120 3.2 24.1 0.00 0.00 0.00 39 1014.2
20200530220505 30 83 1.6 16.1 0.00 0.00 0.00 38 1014.2
20200530220014 30 52 0.0 27.4 0.00 0.00 0.00 39 1014.2
20200530215516 30 80 6.4 30.6 0.00 0.00 0.00 38 1014.3
20200530215008 30 35 8.0 30.6 0.00 0.00 0.00 37 1014.3
20200530214510 30 58 1.6 20.9 0.00 0.00 0.00 38 1014.4
20200530213508 30 98 0.0 29.0 0.00 0.00 0.00 38 1014.5
20200530213004 30 77 12.9 29.0 0.00 0.00 0.00 38 1014.5
20200530212510 30 153 0.0 22.5 0.00 0.00 0.00 39 1014.5
20200530212007 29 21 0.0 12.9 0.00 0.00 0.00 40 1014.6
20200530211516 30 119 0.0 12.9 0.00 0.00 0.00 39 1014.6
20200530211005 30 61 0.0 12.9 0.00 0.00 0.00 39 1014.7
20200530210500 30 84 0.0 8.0 0.00 0.00 0.00 38 1014.8
20200530210001 30 355 0.0 24.1 0.00 0.00 0.00 39 1014.9
20200530205102 30 73 0.0 16.1 0.00 0.00 0.00 38 1014.9
20200530204641 30 107 0.0 14.5 0.00 0.00 0.00 39 1015.0
20200530203557 30 85 0.0 24.1 0.00 0.00 0.00 38 1015.1
20200530203132 30 41 4.8 24.1 0.00 0.00 0.00 38 1015.1
20200530202632 30 119 0.0 4.8 0.00 0.00 0.00 39 1015.2
20200530202056 30 121 0.0 0.0 0.00 0.00 0.00 38 1015.2
20200530201648 30 97 0.0 6.4 0.00 0.00 0.00 37 1015.3
20200530201055 30 84 0.0 22.5 0.00 0.00 0.00 39 1015.4
20200530200553 30 94 3.2 22.5 0.00 0.00 0.00 37 1015.5
20200530200119 30 71 0.0 9.7 0.00 0.00 0.00 37 1015.5
20200530195552 30 47 1.6 14.5 0.00 0.00 0.00 39 1015.6
20200530195107 30 126 0.0 11.3 0.00 0.00 0.00 38 1015.7
20200530194602 31 77 0.0 17.7 0.00 0.00 0.00 37 1015.8
20200530193552 31 96 1.6 17.7 0.00 0.00 0.00 37 1015.9
20200530193227 31 38 0.0 17.7 0.00 0.00 0.00 37 1015.9
20200530192551 31 62 1.6 14.5 0.00 0.00 0.00 36 1016.0
20200530192053 31 80 0.0 14.5 0.00 0.00 0.00 37 1016.0
20200530191622 30 126 0.0 12.9 0.00 0.00 0.00 39 1016.1
20200530191055 30 84 0.0 14.5 0.00 0.00 0.00 39 1016.2
20200530190546 30 44 0.0 17.7 0.00 0.00 0.00 40 1016.3
20200530190117 30 74 0.0 9.7 0.00 0.00 0.00 39 1016.3
20200530185545 30 345 0.0 6.4 0.00 0.00 0.00 37 1016.3
20200530185044 30 58 0.0 20.9 0.00 0.00 0.00 38 1016.4
20200530184554 30 56 0.0 20.9 0.00 0.00 0.00 38 1016.6
20200530183547 30 53 0.0 22.5 0.00 0.00 0.00 38 1016.8
20200530183104 29 74 4.8 22.5 0.00 0.00 0.00 40 1016.9
20200530182539 29 101 1.6 19.3 0.00 0.00 0.00 39 1016.9
20200530182046 29 126 0.0 22.5 0.00 0.00 0.00 37 1017.0
20200530181546 29 52 3.2 22.5 0.00 0.00 0.00 38 1017.1
20200530181036 29 82 0.0 12.9 0.00 0.00 0.00 40 1017.2
20200530180536 29 100 0.0 3.2 0.00 0.00 0.00 37 1017.2
20200530180042 29 115 0.0 22.5 0.00 0.00 0.00 38 1017.3
20200530175541 29 76 0.0 22.5 0.00 0.00 0.00 36 1017.4
20200530175045 29 74 0.0 19.3 0.00 0.00 0.00 37 1017.4
20200530174546 29 62 0.0 11.3 0.00 0.00 0.00 38 1017.4
20200530173532 28 170 0.0 17.7 0.00 0.00 0.00 40 1017.7
20200530173041 28 150 0.0 22.5 0.00 0.00 0.00 38 1017.7
20200530172535 29 109 0.0 22.5 0.00 0.00 0.00 39 1017.8
20200530172036 28 140 0.0 16.1 0.00 0.00 0.00 37 1017.8
20200530171637 28 78 0.0 17.7 0.00 0.00 0.00 38 1017.8
20200530171039 28 83 1.6 17.7 0.00 0.00 0.00 39 1017.8
20200530170526 28 155 0.0 1.6 0.00 0.00 0.00 38 1017.9
20200530170035 28 33 0.0 14.5 0.00 0.00 0.00 39 1017.9
20200530165523 28 99 0.0 14.5 0.00 0.00 0.00 39 1018.0
20200530165033 27 98 0.0 14.5 0.00 0.00 0.00 39 1018.0
20200530164541 28 104 0.0 6.4 0.00 0.00 0.00 40 1018.1
20200530163523 27 78 0.0 6.4 0.00 0.00 0.00 41 1018.2
20200530163041 27 63 0.0 1.6 0.00 0.00 0.00 42 1018.1
20200530162520 27 137 0.0 1.6 0.00 0.00 0.00 45 1018.2
20200530162022 26 103 0.0 9.7 0.00 0.00 0.00 45 1018.2
20200530161555 26 167 0.0 1.6 0.00 0.00 0.00 48 1018.2
20200530161022 27 147 0.0 1.6 0.00 0.00 0.00 46 1018.3
20200530160518 26 10 0.0 0.0 0.00 0.00 0.00 47 1018.2
20200530160025 26 183 0.0 0.0 0.00 0.00 0.00 49 1018.2
20200530155513 26 113 0.0 11.3 0.00 0.00 0.00 47 1018.3
20200530155011 26 136 0.0 11.3 0.00 0.00 0.00 48 1018.3
20200530154513 26 106 0.0 3.2 0.00 0.00 0.00 48 1018.4
20200530153520 25 155 0.0 8.0 0.00 0.00 0.00 51 1018.6
20200530153006 25 156 0.0 1.6 0.00 0.00 0.00 51 1018.6
20200530152503 25 148 0.0 4.8 0.00 0.00 0.00 51 1018.5
20200530152005 25 186 0.0 4.8 0.00 0.00 0.00 51 1018.5
20200530151505 25 171 0.0 1.6 0.00 0.00 0.00 51 1018.6
20200530151100 25 80 0.0 3.2 0.00 0.00 0.00 52 1018.6
20200530150559 25 119 0.0 12.9 0.00 0.00 0.00 51 1018.7
20200530150204 25 119 0.0 11.3 0.00 0.00 0.00 51 1018.7
20200530145556 25 126 0.0 11.3 0.00 0.00 0.00 52 1018.8
20200530145054 24 113 0.0 1.6 0.00 0.00 0.00 54 1018.9
20200530144631 24 111 0.0 1.6 0.00 0.00 0.00 53 1019.0
20200530144052 23 125 0.0 1.6 0.00 0.00 0.00 56 1019.0
20200530143600 23 117 0.0 1.6 0.00 0.00 0.00 56 1019.0
20200530143159 23 133 0.0 0.0 0.00 0.00 0.00 57 1019.0
20200530142608 22 132 0.0 0.0 0.00 0.00 0.00 59 1019.1
20200530142115 22 143 0.0 0.0 0.00 0.00 0.00 60 1019.0
20200530141627 22 130 0.0 0.0 0.00 0.00 0.00 60 1019.0
20200530141047 22 349 0.0 0.0 0.00 0.00 0.00 60 1018.9
20200530140544 21 349 0.0 0.0 0.00 0.00 0.00 60 1019.0
20200530140106 21 349 0.0 0.0 0.00 0.00 0.00 62 1018.9
20200530135544 20 349 0.0 0.0 0.00 0.00 0.00 64 1018.9
20200530135039 20 348 0.0 0.0 0.00 0.00 0.00 65 1018.9
20200530134548 20 348 0.0 0.0 0.00 0.00 0.00 66 1018.9
20200530134036 19 349 0.0 0.0 0.00 0.00 0.00 69 1018.9
20200530133542 19 349 0.0 0.0 0.00 0.00 0.00 69 1018.9
20200530133039 18 325 0.0 0.0 0.00 0.00 0.00 69 1018.9
20200530132535 18 336 0.0 0.0 0.00 0.00 0.00 71 1018.9
20200530132035 18 336 0.0 0.0 0.00 0.00 0.00 72 1018.8
20200530131706 17 336 0.0 0.0 0.00 0.00 0.00 72 1018.7
20200530131033 17 323 0.0 0.0 0.00 0.00 0.00 73 1018.8
20200530130532 17 319 0.0 0.0 0.00 0.00 0.00 73 1018.7
20200530130122 17 317 0.0 0.0 0.00 0.00 0.00 74 1018.7
20200530125536 17 350 0.0 0.0 0.00 0.00 0.00 74 1018.7
20200530125031 16 355 0.0 1.6 0.00 0.00 0.00 74 1018.7
20200530124539 16 5 0.0 1.6 0.00 0.00 0.00 74 1018.7
20200530124029 16 294 0.0 1.6 0.00 0.00 0.00 74 1018.7
20200530123526 16 294 0.0 1.6 0.00 0.00 0.00 75 1018.8
20200530123035 16 296 0.0 1.6 0.00 0.00 0.00 74 1018.7
20200530122526 16 295 0.0 0.0 0.00 0.00 0.00 75 1018.7
20200530122026 16 295 0.0 1.6 0.00 0.00 0.00 75 1018.6
20200530121602 15 311 0.0 1.6 0.00 0.00 0.00 75 1018.6
20200530121028 15 321 0.0 1.6 0.00 0.00 0.00 75 1018.6
20200530120523 15 288 0.0 1.6 0.00 0.00 0.00 75 1018.5
20200530120046 15 289 0.0 1.6 0.00 0.00 0.00 75 1018.5
20200530115523 15 340 0.0 1.6 0.00 0.00 0.00 75 1018.4
20200530115027 15 336 0.0 1.6 0.00 0.00 0.00 75 1018.3
20200530114533 15 328 0.0 4.8 0.00 0.00 0.00 75 1018.3
20200530114042 15 285 0.0 3.2 0.00 0.00 0.00 75 1018.2
20200530113521 15 294 0.0 3.2 0.00 0.00 0.00 75 1018.2
20200530113025 15 307 0.0 0.0 0.00 0.00 0.00 75 1018.2
20200530112520 15 308 0.0 0.0 0.00 0.00 0.00 75 1018.1
20200530112024 15 309 0.0 0.0 0.00 0.00 0.00 75 1018.2
20200530111537 15 311 0.0 0.0 0.00 0.00 0.00 75 1018.2
20200530111020 15 311 0.0 0.0 0.00 0.00 0.00 74 1018.2
20200530110524 15 313 0.0 0.0 0.00 0.00 0.00 74 1018.1
20200530110025 15 316 0.0 0.0 0.00 0.00 0.00 74 1018.1
20200530105522 15 323 0.0 0.0 0.00 0.00 0.00 74 1018.1
20200530105033 15 323 0.0 0.0 0.00 0.00 0.00 74 1018.0
20200530104545 15 323 0.0 0.0 0.00 0.00 0.00 74 1017.9
20200530104022 15 324 0.0 0.0 0.00 0.00 0.00 73 1017.9
20200530103523 15 324 0.0 0.0 0.00 0.00 0.00 73 1017.9
20200530103019 15 324 0.0 0.0 0.00 0.00 0.00 73 1017.9
20200530102516 15 332 0.0 0.0 0.00 0.00 0.00 73 1018.0
20200530102016 15 335 0.0 0.0 0.00 0.00 0.00 73 1018.0
20200530101535 16 335 0.0 0.0 0.00 0.00 0.00 72 1017.9
20200530101015 16 336 0.0 0.0 0.00 0.00 0.00 72 1017.9
20200530100514 16 336 0.0 0.0 0.00 0.00 0.00 72 1017.9
20200530100014 16 336 0.0 0.0 0.00 0.00 0.00 72 1017.9
20200530095523 16 336 0.0 0.0 0.00 0.00 0.00 72 1017.8
20200530095014 16 336 0.0 0.0 0.00 0.00 0.00 72 1017.9
20200530094513 16 336 0.0 0.0 0.00 0.00 0.00 72 1017.8
20200530094013 16 336 0.0 0.0 0.00 0.00 0.00 72 1017.9
20200530093513 16 336 0.0 0.0 0.00 0.00 0.00 72 1017.9
20200530093027 16 336 0.0 0.0 0.00 0.00 0.00 71 1017.8
20200530092520 16 336 0.0 0.0 0.00 0.00 0.00 71 1017.8
20200530092012 16 336 0.0 0.0 0.00 0.00 0.00 71 1017.7
20200530091519 16 336 0.0 0.0 0.00 0.00 0.00 70 1017.6
20200530091019 16 335 0.0 0.0 0.00 0.00 0.00 70 1017.7
20200530090517 16 336 0.0 0.0 0.00 0.00 0.00 70 1017.7
20200530090017 16 336 0.0 0.0 0.00 0.00 0.00 69 1017.6
20200530085508 16 336 0.0 0.0 0.00 0.00 0.00 69 1017.6
20200530085023 17 336 0.0 0.0 0.00 0.00 0.00 68 1017.6
20200530084524 17 336 0.0 0.0 0.00 0.00 0.00 68 1017.6
20200530084012 17 336 0.0 0.0 0.00 0.00 0.00 68 1017.6
20200530083510 17 336 0.0 0.0 0.00 0.00 0.00 68 1017.7
20200530083010 17 336 0.0 0.0 0.00 0.00 0.00 68 1017.7
20200530082512 17 336 0.0 0.0 0.00 0.00 0.00 68 1017.7
20200530082009 17 336 0.0 0.0 0.00 0.00 0.00 68 1017.7
20200530081527 17 336 0.0 0.0 0.00 0.00 0.00 68 1017.6
20200530081008 17 336 0.0 0.0 0.00 0.00 0.00 68 1017.6
20200530080507 17 336 0.0 0.0 0.00 0.00 0.00 69 1017.6
20200530080007 16 337 0.0 0.0 0.00 0.00 0.00 69 1017.5
20200530075507 16 338 0.0 0.0 0.00 0.00 0.00 69 1017.5
20200530075008 17 341 0.0 0.0 0.00 0.00 0.00 69 1017.6
20200530074507 17 341 0.0 0.0 0.00 0.00 0.00 69 1017.5
20200530074007 17 346 0.0 0.0 0.00 0.00 0.00 69 1017.6